星链-30771 (STARLINK-30771 )

导读

STARLINK-30771是美国SpaceX公司星链(Starlink)项目的近地轨道通信卫星,于2023年10月29日发射升空。星链项目旨在通过部署近地轨道卫星群,为全球提供高速互联网接入服务,重点覆盖偏远地区、海洋等网络基础设施薄弱区域。STARLINK-30771作为星链星座的组成部分,采用低轨设计,配合星座组网可降低通信延迟,提升全球网络覆盖能力,支撑星链系统面向个人、企业及特殊场景提供宽带服务,是SpaceX推进全球卫星互联网建设的一环。

基本信息
目录编号:
58169
目录名称:
STARLINK-30771
国际标识:
2023-166V
轨道中心:
EARTH
卫星名称:
星链-30771
卫星全名:
星链-30771 (STARLINK-30771 )
卫星状态:
在轨 (已飞行1041 天)
发射日期:
2023-10-29 UTC
国别 :
美国 (US)
星等 :
--
轨道信息
数据来源 国际轨道数据 AOE轨道数据
星历时间 2026-09-03T22:44:30+0800
15小时前
查看轨道信息
2026-09-01T00:00:00+0800
3天前
查看轨道信息
半长轴 6843.38km 6843.413km
偏心率 0.0001197 0.0000937
轨道倾角 53.161° 53.158°
近地点辐角 87.720° 85.719°
升交点赤经 112.941° 126.700°
平近点角 272.394° 192.463°
近地点 464.423km 464.634km
远地点 466.063km 465.918km
周期 93.900分钟 93.901分钟
每日圈数 15.335459 15.335351
详细信息
固有亮度:
5
最大亮度:
0.3
卫星平台:
Starlink v2.0 mini
覆盖范围:
全球
运营商:
太空探索技术公司
运营商所在国:
美国
制造商(研发单位):
太空探索技术公司
制造商所在国:
美国
使用方式:
暂无
卫星简介
星链(Starlink)计划是由太空探索技术公司(SpaceX)提出的一个巨型低轨卫星互联网星座项目,计划在2019年至2024年间在太空搭建由约1.2万颗卫星组成的“星链”网络,其中1584颗将部署在地球上空550千米处的近地轨道,并从2020年开始工作。该卫星仍在工作。
2D轨道图
3D轨道图
轨道高度分析图
轨道倾角分析图
轨道综合分析图
查看轨道综合分析图
交会数据列表
事件ID 空间交会对象 最接近时刻(TCA) 交会距离 交会风险概率(CRP) 交会风险指数(CRI) 操作
CDM_260905-014305-816906-796121
2026-09-05T
01:43:02+0000
2.099 km
极远距离
2.487931E-6 低风险 0.43
CDM_260904-023505-803405-816921
2026-09-04T
02:35:57+0000
2.370 km
极远距离
1.675738E-6 低风险 0.39
CDM_260904-012905-816906-921821
2026-09-04T
01:29:08+0000
2.706 km
极远距离
1.514828E-6 低风险 0.39
CDM_260904-065805-816906-926021
2026-09-04T
06:58:22+0000
2.476 km
极远距离
1.465071E-6 低风险 0.38
CDM_260903-090605-816906-933821
2026-09-03T
09:06:55+0000
2.912 km
极远距离
1.378481E-6 低风险 0.38
CDM_260903-232705-816906-002721
2026-09-03T
23:27:52+0000
2.811 km
极远距离
1.268476E-6 低风险 0.37
CDM_260904-051105-816906-812021
2026-09-04T
05:11:59+0000
2.833 km
极远距离
1.255503E-6 低风险 0.37
CDM_260903-044705-816906-449222
2026-09-03T
04:47:34+0000
2.680 km
极远距离
1.235654E-6 低风险 0.37
CDM_260904-015605-816906-094421
2026-09-04T
01:56:32+0000
2.621 km
极远距离
1.196043E-6 低风险 0.37
CDM_260904-055805-816906-812021
2026-09-04T
05:58:56+0000
2.944 km
极远距离
1.194426E-6 低风险 0.37